When you browse on this site, cookies collect data to enhance your experience and personalize the content and advertising you see.
Visit our Privacy Policy to learn more. By continuing to use the site, you agree to this use of cookies and data.
  • In Portugal
  • List of Countries
  • For 7 days
  • Water Temperature
  • Satellite Maps
  • Weather Map
  • Weather Widgets
  • user-avatar
    Login

    Hourly Weather Kruszki

    Today, 21 July, Sunday

    Time Temperature Precipitation Wind Pressure Humidity
    00:00 +16°C° 0 mm 1 mps 741 mmHg 88%
    01:00 +16°C° 0 mm 1 mps 741 mmHg 89%
    02:00 +16°C° 0 mm 1 mps 741 mmHg 88%
    03:00 +16°C° 0 mm 1 mps 741 mmHg 89%
    04:00 +16°C° 0 mm 2 mps 741 mmHg 90%
    05:00 +16°C° 0 mm 2 mps 741 mmHg 91%
    06:00 +17°C° 0 mm 2 mps 741 mmHg 88%
    07:00 +19°C° 0 mm 2 mps 741 mmHg 85%
    08:00 +21°C° 0 mm 2 mps 741 mmHg 83%
    09:00 +22°C° 0.1 mm 3 mps 741 mmHg 77%
    10:00 +24°C° 0.1 mm 3 mps 741 mmHg 72%
    11:00 +26°C° 0.1 mm 3 mps 741 mmHg 67%
    12:00 +26°C° 1.3 mm 3 mps 740 mmHg 70%
    13:00 +25°C° 1.3 mm 3 mps 740 mmHg 74%
    14:00 +25°C° 1.3 mm 4 mps 740 mmHg 77%
    15:00 +25°C° 0.9 mm 3 mps 740 mmHg 79%
    16:00 +24°C° 0.9 mm 3 mps 740 mmHg 81%
    17:00 +24°C° 0.9 mm 3 mps 740 mmHg 83%
    18:00 +22°C° 0.3 mm 3 mps 740 mmHg 86%
    19:00 +21°C° 0.3 mm 3 mps 740 mmHg 89%
    20:00 +20°C° 0.3 mm 3 mps 740 mmHg 92%
    21:00 +19°C° 0.9 mm 3 mps 740 mmHg 93%
    22:00 +18°C° 0.9 mm 3 mps 741 mmHg 95%
    23:00 +17°C° 0.9 mm 3 mps 741 mmHg 97%

    Tomorrow, 22 July, Monday

    Time Temperature Precipitation Wind Pressure Humidity
    00:00 +16°C° 0 mm 3 mps 741 mmHg 97%
    01:00 +16°C° 0 mm 3 mps 741 mmHg 97%
    02:00 +16°C° 0 mm 3 mps 741 mmHg 97%
    03:00 +14°C° 0 mm 3 mps 741 mmHg 97%
    04:00 +14°C° 0 mm 3 mps 741 mmHg 97%
    05:00 +13°C° 0 mm 3 mps 741 mmHg 98%
    06:00 +14°C° 0 mm 3 mps 741 mmHg 96%
    07:00 +15°C° 0 mm 4 mps 741 mmHg 95%
    08:00 +16°C° 0 mm 5 mps 742 mmHg 94%
    09:00 +17°C° 0.1 mm 5 mps 742 mmHg 90%
    10:00 +19°C° 0.1 mm 5 mps 742 mmHg 86%
    11:00 +20°C° 0.1 mm 5 mps 742 mmHg 82%
    12:00 +20°C° 0.2 mm 6 mps 742 mmHg 78%
    13:00 +21°C° 0.2 mm 6 mps 742 mmHg 73%
    14:00 +21°C° 0.2 mm 7 mps 742 mmHg 68%
    15:00 +21°C° 0 mm 7 mps 742 mmHg 68%
    16:00 +20°C° 0 mm 7 mps 742 mmHg 69%
    17:00 +20°C° 0 mm 6 mps 742 mmHg 69%
    18:00 +19°C° 0 mm 6 mps 742 mmHg 75%
    19:00 +16°C° 0 mm 5 mps 742 mmHg 80%
    20:00 +15°C° 0 mm 4 mps 742 mmHg 85%
    21:00 +14°C° 0 mm 4 mps 742 mmHg 88%
    22:00 +13°C° 0 mm 3 mps 742 mmHg 92%
    23:00 +12°C° 0 mm 3 mps 742 mmHg 96%

    Day after tomorrow, 23 July, Tuesday

    Time Temperature Precipitation Wind Pressure Humidity
    00:00 +12°C° 0 mm 3 mps 742 mmHg 96%
    01:00 +12°C° 0 mm 3 mps 742 mmHg 97%
    02:00 +12°C° 0 mm 4 mps 742 mmHg 97%
    03:00 +12°C° 0 mm 4 mps 742 mmHg 97%
    04:00 +12°C° 0 mm 4 mps 742 mmHg 97%
    05:00 +12°C° 0 mm 4 mps 742 mmHg 97%
    06:00 +13°C° 0 mm 4 mps 742 mmHg 94%
    07:00 +15°C° 0 mm 4 mps 742 mmHg 91%
    08:00 +16°C° 0 mm 5 mps 742 mmHg 87%
    09:00 +19°C° 0.1 mm 5 mps 742 mmHg 83%
    10:00 +20°C° 0.1 mm 5 mps 742 mmHg 79%
    11:00 +21°C° 0.1 mm 5 mps 742 mmHg 75%
    12:00 +21°C° 0.4 mm 5 mps 742 mmHg 75%
    13:00 +21°C° 0.4 mm 5 mps 742 mmHg 75%
    14:00 +21°C° 0.4 mm 5 mps 742 mmHg 75%
    15:00 +21°C° 0.1 mm 5 mps 742 mmHg 75%
    16:00 +22°C° 0.1 mm 5 mps 742 mmHg 75%
    17:00 +22°C° 0.1 mm 5 mps 742 mmHg 75%
    18:00 +20°C° 0 mm 4 mps 742 mmHg 80%
    19:00 +19°C° 0 mm 3 mps 742 mmHg 85%
    20:00 +18°C° 0 mm 2 mps 742 mmHg 90%
    21:00 +17°C° 0 mm 2 mps 742 mmHg 93%
    22:00 +16°C° 0 mm 2 mps 742 mmHg 95%
    23:00 +15°C° 0 mm 2 mps 742 mmHg 98%

    24 July, Wednesday

    Time Temperature Precipitation Wind Pressure Humidity
    00:00 +15°C° 0 mm 2 mps 742 mmHg 98%
    01:00 +15°C° 0 mm 2 mps 742 mmHg 98%
    02:00 +15°C° 0 mm 1 mps 742 mmHg 98%
    03:00 +16°C° 0 mm 1 mps 742 mmHg 98%
    04:00 +16°C° 0 mm 1 mps 742 mmHg 98%
    05:00 +16°C° 0 mm 1 mps 742 mmHg 98%
    06:00 +18°C° 0 mm 1 mps 742 mmHg 96%
    07:00 +18°C° 0 mm 1 mps 742 mmHg 93%
    08:00 +19°C° 0 mm 1 mps 742 mmHg 91%
    09:00 +20°C° 0.2 mm 1 mps 742 mmHg 88%
    10:00 +19°C° 0.2 mm 0 mps 742 mmHg 84%
    11:00 +20°C° 0.2 mm 0 mps 743 mmHg 81%
    12:00 +23°C° 0.3 mm 1 mps 743 mmHg 79%
    13:00 +23°C° 0.3 mm 1 mps 742 mmHg 78%
    14:00 +24°C° 0.3 mm 1 mps 742 mmHg 77%
    15:00 +24°C° 0.3 mm 1 mps 742 mmHg 75%
    16:00 +24°C° 0.3 mm 1 mps 742 mmHg 74%
    17:00 +24°C° 0.3 mm 1 mps 742 mmHg 73%
    18:00 +23°C° 0.1 mm 1 mps 742 mmHg 77%
    19:00 +22°C° 0.1 mm 1 mps 742 mmHg 81%
    20:00 +21°C° 0.1 mm 1 mps 742 mmHg 85%
    21:00 +20°C° 0 mm 1 mps 743 mmHg 87%
    22:00 +20°C° 0 mm 1 mps 743 mmHg 88%
    23:00 +19°C° 0 mm 1 mps 743 mmHg 90%

    25 July, Thursday

    Time Temperature Precipitation Wind Pressure Humidity
    00:00 +18°C° 0 mm 1 mps 744 mmHg 91%
    01:00 +18°C° 0 mm 1 mps 744 mmHg 91%
    02:00 +18°C° 0 mm 1 mps 744 mmHg 92%
    03:00 +18°C° 0 mm 1 mps 744 mmHg 92%
    04:00 +16°C° 0 mm 1 mps 744 mmHg 92%
    05:00 +16°C° 0 mm 1 mps 744 mmHg 92%
    06:00 +19°C° 0 mm 1 mps 744 mmHg 88%
    07:00 +20°C° 0 mm 1 mps 744 mmHg 83%
    08:00 +22°C° 0 mm 1 mps 745 mmHg 79%
    09:00 +23°C° 0 mm 2 mps 745 mmHg 75%
    10:00 +24°C° 0 mm 2 mps 745 mmHg 70%
    11:00 +25°C° 0 mm 2 mps 745 mmHg 66%
    12:00 +26°C° 0.1 mm 2 mps 745 mmHg 64%
    13:00 +26°C° 0.1 mm 2 mps 745 mmHg 62%
    14:00 +27°C° 0.1 mm 2 mps 745 mmHg 61%
    15:00 +27°C° 0 mm 2 mps 744 mmHg 62%
    16:00 +27°C° 0 mm 2 mps 744 mmHg 63%
    17:00 +27°C° 0 mm 2 mps 744 mmHg 64%
    18:00 +25°C° 0 mm 2 mps 744 mmHg 70%
    19:00 +24°C° 0 mm 2 mps 744 mmHg 76%
    20:00 +23°C° 0 mm 2 mps 744 mmHg 82%
    21:00 +21°C° 0 mm 2 mps 744 mmHg 85%
    22:00 +20°C° 0 mm 2 mps 744 mmHg 87%
    23:00 +19°C° 0 mm 2 mps 744 mmHg 90%

    26 July, Friday

    Time Temperature Precipitation Wind Pressure Humidity
    00:00 +19°C° 0 mm 2 mps 744 mmHg 91%
    01:00 +18°C° 0 mm 2 mps 745 mmHg 91%
    02:00 +18°C° 0 mm 2 mps 745 mmHg 92%
    03:00 +18°C° 0 mm 2 mps 745 mmHg 92%
    04:00 +17°C° 0 mm 2 mps 744 mmHg 92%
    05:00 +17°C° 0 mm 2 mps 744 mmHg 93%
    06:00 +19°C° 0 mm 2 mps 745 mmHg 89%
    07:00 +20°C° 0 mm 2 mps 745 mmHg 84%
    08:00 +23°C° 0 mm 2 mps 745 mmHg 80%
    09:00 +24°C° 0 mm 3 mps 745 mmHg 75%
    10:00 +25°C° 0 mm 3 mps 745 mmHg 70%
    11:00 +26°C° 0 mm 3 mps 745 mmHg 64%
    12:00 +27°C° 0 mm 3 mps 745 mmHg 62%
    13:00 +27°C° 0 mm 3 mps 745 mmHg 60%
    14:00 +28°C° 0 mm 3 mps 744 mmHg 58%
    15:00 +28°C° 0 mm 3 mps 744 mmHg 60%
    16:00 +28°C° 0 mm 3 mps 744 mmHg 61%
    17:00 +27°C° 0 mm 3 mps 744 mmHg 63%
    18:00 +26°C° 0 mm 3 mps 744 mmHg 69%
    19:00 +25°C° 0 mm 3 mps 743 mmHg 74%
    20:00 +22°C° 0 mm 3 mps 743 mmHg 80%
    21:00 +21°C° 0 mm 2 mps 743 mmHg 82%
    22:00 +20°C° 0 mm 2 mps 743 mmHg 84%
    23:00 +19°C° 0 mm 2 mps 744 mmHg 85%
    Show more